GW0309 Weather Reports


Display with metric or nautical units.
time (UTC)temp
F
wind
direction
speed
MPH
gust
MPH
rain 1hr
in
rain 24hr
in
rain mn
in
humidity
%
barometer
mb
20260510093119 0 82 2.0 2.0 0.00 0.00 0.00 1062.0
20260510092615 0 95 0.0 2.0 0.00 0.00 0.00 1062.0
20260510092115 0 107 1.0 2.0 0.00 0.00 0.00 1062.0
20260510091612 0 74 1.0 2.0 0.00 0.00 0.00 1062.1
20260510091108 0 89 1.0 2.0 0.00 0.00 0.00 1061.9
20260510090605 0 116 0.0 2.0 0.00 0.00 0.00 1061.9
20260510090101 0 67 2.0 3.0 0.00 0.00 0.00 1062.0
20260510085556 0 90 2.0 3.0 0.00 0.00 0.00 1061.9
20260510085052 0 96 1.0 2.0 0.00 0.00 0.00 1061.6
20260510084549 0 80 1.0 2.0 0.00 0.00 0.00 1061.6
20260510084046 0 99 1.0 1.0 0.00 0.00 0.00 1061.5
20260510083542 0 110 2.0 2.0 0.00 0.00 0.00 1061.4
20260510083038 0 124 0.0 2.0 0.00 0.00 0.00 1061.4
20260510082535 0 119 0.0 0.0 0.00 0.00 0.00 1061.5
20260510082031 0 97 1.0 2.0 0.00 0.00 0.00 1061.4
20260510081526 0 99 1.0 1.0 0.00 0.00 0.00 1061.2
20260510081022 0 119 0.0 1.0 0.00 0.00 0.00 1061.3
20260510080521 0 115 0.0 1.0 0.00 0.00 0.00 1061.3
20260510080018 0 96 1.0 1.0 0.00 0.00 0.00 1061.2
20260510075515 0 85 1.0 2.0 0.00 0.00 0.00 1061.1
20260510075012 0 71 1.0 2.0 0.00 0.00 0.00 1061.0
20260510074510 0 66 1.0 2.0 0.00 0.00 0.00 1061.0
20260510074005 0 107 0.0 1.0 0.00 0.00 0.00 1061.2
20260510073501 0 116 0.0 0.0 0.00 0.00 0.00 1061.1
20260510072958 0 74 1.0 1.0 0.00 0.00 0.00 1060.9
20260510072455 0 68 2.0 2.0 0.00 0.00 0.00 1061.1
20260510071950 0 46 2.0 6.0 0.00 0.00 0.00 1061.4
20260510071447 0 100 0.0 1.0 0.00 0.00 0.00 1061.2
20260510070945 0 111 0.0 1.0 0.00 0.00 0.00 1061.1
20260510070442 0 124 0.0 1.0 0.00 0.00 0.00 1061.3
20260510065938 0 123 0.0 1.0 0.00 0.00 0.00 1060.9
20260510065435 0 124 0.0 0.0 0.00 0.00 0.00 1060.9
20260510064931 0 129 0.0 0.0 0.00 0.00 0.00 1060.8
20260510064428 0 117 0.0 0.0 0.00 0.00 0.00 1060.8
20260510063925 0 118 0.0 1.0 0.00 0.00 0.00 1060.9
20260510063421 0 127 0.0 0.0 0.00 0.00 0.00 1060.9
20260510062919 0 128 0.0 0.0 0.00 0.00 0.00 1060.6
20260510062414 0 127 0.0 0.0 0.00 0.00 0.00 1060.9
20260510061910 0 128 0.0 0.0 0.00 0.00 0.00 1060.6
20260510061407 0 129 0.0 1.0 0.00 0.00 0.00 1061.0
20260510060902 0 136 0.0 1.0 0.00 0.00 0.00 1060.8
20260510060359 0 139 1.0 2.0 0.00 0.00 0.00 1060.7
20260510055850 0 150 2.0 2.0 0.00 0.00 0.00 1060.9
20260510055349 0 137 1.0 1.0 0.00 0.00 0.00 1061.0
20260510054843 0 155 2.0 3.0 0.00 0.00 0.00 1060.9
20260510054339 0 164 2.0 3.0 0.00 0.00 0.00 1061.0
20260510053833 0 149 2.0 2.0 0.00 0.00 0.00 1061.0
20260510053329 0 147 1.0 1.0 0.00 0.00 0.00 1060.6
20260510052826 0 133 0.0 0.0 0.00 0.00 0.00 1061.1
20260510052322 0 121 0.0 0.0 0.00 0.00 0.00 1060.7
20260510051818 0 121 0.0 0.0 0.00 0.00 0.00 1060.8
20260510051315 0 127 0.0 1.0 0.00 0.00 0.00 1060.9
20260510050811 0 133 0.0 0.0 0.00 0.00 0.00 1060.7
20260510050303 0 121 0.0 1.0 0.00 0.00 0.00 1060.8
20260510045800 0 135 0.0 0.0 0.00 0.01 0.01 1060.4
20260510045256 0 129 0.0 0.0 0.00 0.01 0.01 1060.3
20260510044754 0 127 0.0 0.0 0.00 0.01 0.01 1060.2
20260510044250 0 124 0.0 0.0 0.00 0.01 0.01 1060.2
20260510043746 0 119 0.0 0.0 0.00 0.01 0.01 1060.3
20260510043242 0 99 1.0 2.0 0.00 0.01 0.01 1060.3
20260510042740 0 96 1.0 2.0 0.00 0.01 0.01 1060.3
20260510042235 0 109 1.0 2.0 0.00 0.01 0.01 1060.1
20260510041732 0 326 3.0 6.0 0.00 0.01 0.01 1060.0
20260510041230 0 68 3.0 7.0 0.00 0.01 0.01 1060.0
20260510040726 0 358 5.0 9.0 0.00 0.01 0.01 1059.7
20260510040223 0 131 0.0 0.0 0.00 0.01 0.01 1059.5
20260510035719 0 128 0.0 0.0 0.00 0.01 0.01 1059.2
20260510035215 0 134 0.0 1.0 0.00 0.01 0.01 1059.2
20260510034711 0 131 0.0 1.0 0.00 0.01 0.01 1059.4
20260510034209 0 132 0.0 1.0 0.00 0.01 0.01 1059.3
20260510033659 0 134 0.0 1.0 0.00 0.01 0.01 1059.1
20260510033157 0 138 1.0 1.0 0.00 0.01 0.01 1059.1
20260510032653 0 130 0.0 0.0 0.00 0.01 0.01 1059.2
20260510032148 0 134 0.0 0.0 0.00 0.01 0.01 1059.0
20260510031643 0 133 0.0 1.0 0.00 0.01 0.01 1059.1
20260510031140 0 139 0.0 1.0 0.00 0.01 0.01 1059.0
20260510030634 0 132 0.0 0.0 0.00 0.01 0.01 1059.1
20260510030132 0 137 0.0 1.0 0.00 0.01 0.01 1059.1
20260510025629 0 132 0.0 0.0 0.00 0.01 0.01 1059.0
20260510025126 0 132 0.0 0.0 0.00 0.01 0.01 1058.9
20260510024623 0 137 1.0 1.0 0.00 0.01 0.01 1058.9
20260510024119 0 132 0.0 0.0 0.00 0.01 0.01 1059.0
20260510023615 0 134 0.0 0.0 0.00 0.01 0.01 1058.7
20260510023113 0 134 0.0 0.0 0.00 0.01 0.01 1058.3
20260510022613 0 134 0.0 1.0 0.00 0.01 0.01 1058.5
20260510022108 0 129 0.0 0.0 0.00 0.01 0.01 1058.4
20260510021604 0 142 1.0 2.0 0.00 0.01 0.01 1058.1
20260510021102 0 143 1.0 2.0 0.00 0.01 0.01 1058.2
20260510020555 0 143 0.0 0.0 0.00 0.01 0.01 1058.1
20260510020051 0 129 0.0 0.0 0.00 0.01 0.01 1058.0
20260510015548 0 128 0.0 0.0 0.00 0.01 0.01 1058.0
20260510015044 0 129 0.0 0.0 0.00 0.01 0.01 1057.9
20260510014540 0 133 0.0 0.0 0.00 0.01 0.01 1057.9
20260510014037 0 129 0.0 0.0 0.00 0.01 0.01 1057.7
20260510013532 0 131 0.0 0.0 0.00 0.01 0.01 1057.4
20260510013027 0 132 0.0 0.0 0.00 0.01 0.01 1057.3
20260510012522 0 128 0.0 0.0 0.00 0.01 0.01 1057.2
20260510012019 0 129 0.0 0.0 0.00 0.01 0.01 1057.5
20260510011518 0 130 0.0 0.0 0.00 0.01 0.01 1057.2
20260510011014 0 128 0.0 0.0 0.00 0.01 0.01 1057.3
20260510010511 0 129 0.0 0.0 0.00 0.01 0.01 1057.1
20260510010008 0 128 0.0 0.0 0.00 0.01 0.01 1057.2
20260510005504 0 131 0.0 0.0 0.00 0.01 0.01 1057.3
20260510005002 0 128 0.0 0.0 0.00 0.01 0.01 1057.3
20260510004459 0 129 0.0 0.0 0.00 0.01 0.01 1057.0
20260510003957 0 128 0.0 0.0 0.00 0.01 0.01 1057.0
20260510003453 0 128 0.0 0.0 0.00 0.01 0.01 1057.0
20260510002948 0 129 0.0 0.0 0.00 0.01 0.01 1057.2
20260510002444 0 128 0.0 0.0 0.00 0.01 0.01 1057.0
20260510001941 0 128 0.0 0.0 0.00 0.01 0.01 1056.9
20260510001438 0 131 0.0 0.0 0.00 0.01 0.01 1057.2
20260510000936 0 127 0.0 0.0 0.00 0.01 0.01 1056.9
20260510000433 0 129 0.0 0.0 0.00 0.01 0.01 1057.2
20260509235929 0 128 0.0 0.0 0.00 0.01 0.01 1056.9
20260509235426 0 136 0.0 0.0 0.00 0.01 0.01 1057.1
20260509234922 0 135 0.0 1.0 0.00 0.01 0.01 1057.0
20260509234419 0 129 0.0 0.0 0.00 0.01 0.01 1056.8
20260509233917 0 131 0.0 2.0 0.00 0.01 0.01 1057.0
20260509233414 0 270 4.0 5.0 0.00 0.01 0.01 1056.7
20260509232910 0 122 0.0 1.0 0.00 0.01 0.01 1056.8
20260509232408 0 131 1.0 1.0 0.00 0.01 0.01 1056.9
20260509231903 0 128 0.0 3.0 0.00 0.01 0.01 1056.8
20260509231400 0 155 1.0 5.0 0.00 0.01 0.01 1056.7
20260509230859 0 168 2.0 2.0 0.00 0.01 0.01 1057.1
20260509230355 0 186 3.0 5.0 0.00 0.01 0.01 1056.7
20260509225851 0 140 0.0 2.0 0.00 0.01 0.01 1057.1
20260509225348 0 174 2.0 5.0 0.00 0.01 0.01 1056.8
20260509224843 0 128 1.0 6.0 0.00 0.01 0.01 1056.6
20260509224340 0 123 1.0 7.0 0.00 0.01 0.01 1056.8
20260509223837 0 242 3.0 6.0 0.00 0.01 0.01 1056.9
20260509223333 0 268 2.0 3.0 0.00 0.01 0.01 1056.8
20260509222830 0 135 0.0 3.0 0.00 0.01 0.01 1056.9
20260509222326 0 272 3.0 3.0 0.00 0.01 0.01 1057.0
20260509221821 0 92 1.0 3.0 0.00 0.01 0.01 1056.8
20260509221319 0 299 3.0 6.0 0.00 0.01 0.01 1057.1
20260509220814 0 193 1.0 3.0 0.00 0.01 0.01 1056.7
20260509220310 0 161 2.0 3.0 0.00 0.01 0.01 1056.8
20260509215806 0 335 1.0 6.0 0.00 0.01 0.01 1056.8
20260509215305 0 245 2.0 3.0 0.00 0.01 0.01 1056.9
20260509214759 0 175 1.0 6.0 0.00 0.01 0.01 1056.8
20260509214257 0 215 4.0 5.0 0.00 0.01 0.01 1056.6
20260509213754 0 245 2.0 5.0 0.00 0.01 0.01 1056.8
20260509213249 0 250 4.0 7.0 0.00 0.01 0.01 1056.8
20260509212747 0 140 2.0 5.0 0.00 0.01 0.01 1056.8
20260509212244 0 260 5.0 7.0 0.00 0.01 0.01 1057.1
20260509211734 0 270 5.0 8.0 0.00 0.01 0.01 1056.9
20260509211231 0 286 5.0 7.0 0.00 0.01 0.01 1057.1
20260509210727 0 141 0.0 5.0 0.00 0.01 0.01 1057.0
20260509210225 0 331 4.0 6.0 0.00 0.01 0.01 1056.9
20260509205725 0 95 3.0 7.0 0.00 0.01 0.01 1057.3
20260509205224 0 155 1.0 3.0 0.00 0.01 0.01 1057.3
20260509204721 0 266 6.0 9.0 0.00 0.01 0.01 1057.2
20260509204217 0 177 2.0 2.0 0.00 0.01 0.01 1057.1
20260509203713 0 203 3.0 3.0 0.00 0.01 0.01 1057.1
20260509203211 0 136 2.0 5.0 0.00 0.01 0.01 1057.4
20260509202706 0 205 4.0 6.0 0.00 0.01 0.01 1057.4
20260509202202 0 274 3.0 8.0 0.00 0.01 0.01 1057.5
20260509201657 0 194 2.0 7.0 0.00 0.01 0.01 1057.6
20260509201154 0 295 2.0 7.0 0.00 0.01 0.01 1057.6
20260509200651 0 172 4.0 6.0 0.00 0.01 0.01 1057.4
20260509200146 0 91 2.0 8.0 0.00 0.01 0.01 1057.6
20260509195642 0 298 3.0 6.0 0.00 0.01 0.01 1057.5
20260509195137 0 289 3.0 6.0 0.00 0.01 0.01 1057.7
20260509194636 0 252 3.0 5.0 0.00 0.01 0.01 1057.6
20260509194134 0 70 2.0 5.0 0.00 0.01 0.01 1057.5
20260509193630 0 112 3.0 9.0 0.00 0.01 0.01 1057.6
20260509193125 0 236 4.0 7.0 0.00 0.01 0.01 1057.5
20260509192623 0 295 3.0 8.0 0.00 0.01 0.01 1057.7
20260509192117 0 178 3.0 5.0 0.00 0.01 0.01 1057.6
20260509191612 0 235 2.0 7.0 0.00 0.01 0.01 1057.5
20260509191108 0 306 2.0 6.0 0.00 0.01 0.01 1057.6
20260509190605 0 299 3.0 5.0 0.00 0.01 0.01 1057.5
20260509185600 0 145 2.0 6.0 0.00 0.01 0.01 1057.7
20260509185056 0 108 3.0 3.0 0.00 0.01 0.01 1057.5
20260509184555 0 162 1.0 8.0 0.00 0.01 0.01 1057.7
20260509184051 0 232 5.0 6.0 0.00 0.01 0.01 1057.7
20260509183546 0 242 3.0 7.0 0.00 0.01 0.01 1057.6
20260509183042 0 214 4.0 5.0 0.00 0.01 0.01 1057.5
20260509182539 0 250 5.0 11.0 0.00 0.01 0.01 1058.0
20260509182036 0 94 4.0 6.0 0.00 0.01 0.01 1057.7
20260509181534 0 258 3.0 8.0 0.00 0.01 0.01 1057.7
20260509181031 0 288 5.0 6.0 0.00 0.01 0.01 1058.2
20260509180526 0 239 5.0 8.0 0.00 0.01 0.01 1058.1
20260509180019 0 251 4.0 7.0 0.00 0.01 0.01 1058.2
20260509175514 0 228 3.0 8.0 0.00 0.01 0.01 1058.1
20260509175011 0 181 4.0 5.0 0.00 0.01 0.01 1058.3
20260509174508 0 152 4.0 8.0 0.00 0.01 0.01 1058.1
20260509174003 0 193 2.0 3.0 0.00 0.01 0.01 1058.0
20260509173457 0 178 2.0 5.0 0.00 0.01 0.01 1058.1
20260509172954 0 212 5.0 6.0 0.00 0.01 0.01 1058.1
20260509172451 0 292 3.0 5.0 0.00 0.01 0.01 1058.1
20260509171946 0 295 4.0 6.0 0.00 0.01 0.01 1058.2
20260509171443 0 115 4.0 8.0 0.00 0.01 0.01 1058.1
20260509170939 0 224 5.0 7.0 0.00 0.01 0.01 1058.4
20260509170435 0 170 1.0 5.0 0.00 0.01 0.01 1058.3
20260509165930 0 208 2.0 5.0 0.00 0.01 0.01 1058.2
20260509165425 0 232 5.0 7.0 0.00 0.01 0.01 1058.4
20260509164921 0 312 5.0 9.0 0.00 0.01 0.01 1058.5
20260509164417 0 246 3.0 3.0 0.00 0.01 0.01 1058.3
20260509163913 0 298 3.0 10.0 0.00 0.01 0.01 1058.6
20260509163411 0 200 3.0 6.0 0.00 0.01 0.01 1058.7
20260509162909 0 142 1.0 9.0 0.00 0.01 0.01 1058.5
20260509162408 0 212 2.0 7.0 0.00 0.01 0.01 1058.5
20260509161904 0 154 2.0 5.0 0.00 0.01 0.01 1058.4
20260509161400 0 262 4.0 5.0 0.00 0.01 0.01 1058.5
20260509160856 0 268 6.0 7.0 0.00 0.01 0.01 1058.4
20260509160352 0 202 4.0 7.0 0.00 0.01 0.01 1058.4
20260509155847 0 235 2.0 5.0 0.00 0.01 0.01 1058.5
20260509155344 0 189 3.0 5.0 0.00 0.01 0.01 1058.5
20260509154840 0 325 2.0 6.0 0.00 0.01 0.01 1058.4
20260509154337 0 196 3.0 7.0 0.00 0.01 0.01 1058.4
20260509153834 0 245 4.0 6.0 0.00 0.01 0.01 1058.4
20260509153331 0 302 5.0 9.0 0.00 0.01 0.01 1058.4
20260509152828 0 302 4.0 8.0 0.00 0.01 0.01 1058.2
20260509152323 0 257 5.0 6.0 0.00 0.01 0.01 1058.4
20260509151821 0 241 5.0 7.0 0.00 0.01 0.01 1058.3
20260509151316 0 185 1.0 2.0 0.00 0.01 0.01 1058.4
20260509150815 0 150 2.0 2.0 0.00 0.01 0.01 1058.4
20260509150307 0 304 3.0 3.0 0.00 0.01 0.01 1058.4
20260509145803 0 248 4.0 8.0 0.00 0.01 0.01 1058.1
20260509145258 0 277 3.0 6.0 0.00 0.01 0.01 1058.2
20260509144755 0 185 2.0 8.0 0.00 0.01 0.01 1058.1
20260509144252 0 273 4.0 5.0 0.00 0.01 0.01 1058.1
20260509143748 0 177 2.0 2.0 0.00 0.01 0.01 1058.1
20260509143246 0 174 2.0 2.0 0.00 0.01 0.01 1057.9
20260509142741 0 180 2.0 3.0 0.00 0.01 0.01 1058.1
20260509142238 0 171 2.0 7.0 0.00 0.01 0.01 1058.0
20260509141734 0 309 4.0 6.0 0.00 0.01 0.01 1058.1
20260509141232 0 153 1.0 6.0 0.00 0.01 0.01 1057.9
20260509140728 0 270 2.0 3.0 0.00 0.01 0.01 1057.7
20260509140225 0 133 2.0 5.0 0.00 0.01 0.01 1057.9
20260509135722 0 274 4.0 6.0 0.00 0.01 0.01 1058.0
20260509135220 0 232 3.0 6.0 0.00 0.01 0.01 1057.7
20260509134716 0 129 0.0 2.0 0.00 0.01 0.01 1057.7
20260509134215 0 144 1.0 6.0 0.00 0.01 0.01 1057.6
20260509133711 0 171 1.0 2.0 0.00 0.01 0.01 1057.7
20260509133208 0 158 1.0 5.0 0.00 0.01 0.01 1057.7
20260509132707 0 260 3.0 6.0 0.00 0.01 0.01 1057.4
20260509132205 0 144 0.0 3.0 0.00 0.01 0.01 1057.4
20260509131700 0 140 1.0 3.0 0.00 0.01 0.01 1057.6
20260509131152 0 157 1.0 2.0 0.00 0.01 0.01 1057.6
20260509130648 0 136 0.0 2.0 0.00 0.01 0.01 1057.5
20260509130144 0 177 2.0 2.0 0.00 0.01 0.01 1057.6
20260509125641 0 200 1.0 5.0 0.00 0.01 0.01 1057.5
20260509125138 0 171 1.0 1.0 0.00 0.01 0.01 1057.6
20260509124634 0 158 1.0 2.0 0.00 0.01 0.01 1057.5
20260509124131 0 135 1.0 3.0 0.00 0.01 0.01 1057.5
20260509123629 0 137 3.0 3.0 0.00 0.01 0.01 1057.5
20260509123126 0 168 1.0 1.0 0.00 0.01 0.01 1057.6
20260509122621 0 137 2.0 3.0 0.00 0.01 0.01 1057.3
20260509122119 0 177 1.0 2.0 0.00 0.01 0.01 1057.3
20260509121615 0 141 2.0 2.0 0.00 0.01 0.01 1057.3
20260509121113 0 158 1.0 2.0 0.00 0.01 0.01 1057.2
20260509120611 0 183 1.0 5.0 0.00 0.01 0.01 1057.0
20260509120109 0 219 1.0 2.0 0.00 0.01 0.01 1057.0
20260509115606 0 140 0.0 1.0 0.00 0.01 0.01 1057.0
20260509115104 0 167 1.0 2.0 0.00 0.01 0.01 1056.7
20260509114602 0 145 0.0 1.0 0.00 0.01 0.01 1056.9
20260509114100 0 180 1.0 2.0 0.00 0.01 0.01 1057.0
20260509113558 0 147 0.0 1.0 0.00 0.01 0.01 1056.7
20260509113055 0 175 1.0 2.0 0.00 0.01 0.01 1056.8
20260509112551 0 145 1.0 1.0 0.00 0.01 0.01 1056.6
20260509112049 0 139 0.0 0.0 0.00 0.01 0.01 1056.7
20260509111546 0 196 1.0 1.0 0.00 0.01 0.01 1056.7
20260509111043 0 136 0.0 1.0 0.00 0.01 0.01 1056.8
20260509110540 0 146 0.0 1.0 0.00 0.01 0.01 1056.7
20260509110037 0 137 0.0 0.0 0.00 0.01 0.01 1056.7
20260509105535 0 208 1.0 2.0 0.00 0.01 0.01 1056.7
20260509105032 0 149 1.0 2.0 0.00 0.01 0.01 1056.9
20260509104529 0 156 1.0 3.0 0.00 0.01 0.01 1056.7
20260509104026 0 197 2.0 2.0 0.00 0.01 0.01 1056.7
20260509103524 0 200 1.0 3.0 0.00 0.01 0.01 1056.6
20260509103022 0 204 2.0 3.0 0.00 0.01 0.01 1056.8
20260509102519 0 151 1.0 3.0 0.00 0.01 0.01 1056.8
20260509102015 0 166 2.0 2.0 0.00 0.01 0.01 1056.8
20260509101512 0 159 1.0 2.0 0.00 0.01 0.01 1056.7
20260509101009 0 140 1.0 2.0 0.00 0.01 0.01 1056.8
20260509100507 0 131 1.0 1.0 0.00 0.01 0.01 1056.7
20260509100004 0 148 1.0 2.0 0.00 0.01 0.01 1057.0
20260509095459 0 161 1.0 3.0 0.00 0.01 0.01 1056.6
20260509094957 0 164 1.0 2.0 0.00 0.01 0.01 1056.6
20260509094453 0 178 3.0 3.0 0.00 0.01 0.01 1057.1
20260509093950 0 138 1.0 2.0 0.00 0.01 0.01 1056.9
20260509093449 0 143 1.0 2.0 0.00 0.01 0.01 1056.9